Time,TemperatureF,DewpointF,PressureIn,WindDirection,WindDirectionDegrees,WindSpeedMPH,WindSpeedGustMPH,Humidity,HourlyPrecipIn,Conditions,Clouds,dailyrainin,SoftwareType,DateUTC
2013-03-01 00:02:00,53.1,51.1,30.46,SSW,193,3.0,9.0,93,0.00,,---,0.07,VWS V14.00,2013-03-01 08:02:00,
2013-03-01 00:07:00,53.2,50.9,30.46,SSW,194,5.0,7.0,92,0.00,,---,0.00,VWS V14.00,2013-03-01 08:07:00,
2013-03-01 00:12:00,53.2,50.9,30.46,South,180,4.0,8.0,92,0.00,,---,0.00,VWS V14.00,2013-03-01 08:12:00,
2013-03-01 00:17:00,53.2,50.9,30.46,South,185,2.0,8.0,92,0.00,,---,0.00,VWS V14.00,2013-03-01 08:17:00,
2013-03-01 00:22:00,53.2,50.9,30.46,SW,218,2.0,8.0,92,0.00,,---,0.00,VWS V14.00,2013-03-01 08:22:00,
2013-03-01 00:27:00,53.2,50.9,30.46,South,188,3.0,8.0,92,0.00,,---,0.00,VWS V14.00,2013-03-01 08:27:00,
2013-03-01 00:32:00,53.3,51.0,30.46,SSW,209,4.0,8.0,92,0.00,,---,0.00,VWS V14.00,2013-03-01 08:32:00,
2013-03-01 00:37:00,53.3,50.7,30.46,South,186,5.0,5.0,91,0.00,,---,0.00,VWS V14.00,2013-03-01 08:37:00,
2013-03-01 00:42:00,53.3,51.0,30.46,South,182,2.0,6.0,92,0.00,,---,0.00,VWS V14.00,2013-03-01 08:42:00,
2013-03-01 00:47:00,53.2,50.9,30.46,SSW,192,2.0,6.0,92,0.00,,---,0.00,VWS V14.00,2013-03-01 08:47:00,
2013-03-01 00:52:00,53.2,50.9,30.46,SW,221,2.0,6.0,92,0.00,,---,0.00,VWS V14.00,2013-03-01 08:52:00,
2013-03-01 00:57:00,53.2,50.9,30.46,SSW,193,3.0,6.0,92,0.00,,---,0.00,VWS V14.00,2013-03-01 08:57:00,
2013-03-01 01:02:00,53.1,50.8,30.46,South,178,2.0,2.0,92,0.00,,---,0.00,VWS V14.00,2013-03-01 09:02:00,
2013-03-01 01:07:00,53.2,50.9,30.46,SSE,167,2.0,6.0,92,0.00,,---,0.00,VWS V14.00,2013-03-01 09:07:00,
2013-03-01 01:12:00,53.1,50.8,30.46,SSW,205,4.0,6.0,92,0.00,,---,0.00,VWS V14.00,2013-03-01 09:12:00,
2013-03-01 01:17:00,53.1,50.5,30.45,South,169,1.0,8.0,91,0.00,,---,0.00,VWS V14.00,2013-03-01 09:17:00,
2013-03-01 01:22:00,53.0,50.7,30.46,SSW,192,1.0,8.0,92,0.00,,---,0.00,VWS V14.00,2013-03-01 09:22:00,
2013-03-01 01:27:00,52.9,50.6,30.46,SSW,196,3.0,8.0,92,0.00,,---,0.00,VWS V14.00,2013-03-01 09:27:00,
2013-03-01 01:32:00,53.0,50.7,30.46,SSE,163,2.0,5.0,92,0.00,,---,0.00,VWS V14.00,2013-03-01 09:32:00,
2013-03-01 01:37:00,53.0,50.5,30.46,South,175,2.0,7.0,91,0.00,,---,0.00,VWS V14.00,2013-03-01 09:37:00,
2013-03-01 01:42:00,53.2,50.7,30.46,South,191,4.0,8.0,91,0.00,,---,0.00,VWS V14.00,2013-03-01 09:42:00,
2013-03-01 01:47:00,53.3,50.7,30.46,SSW,205,3.0,8.0,91,0.00,,---,0.00,VWS V14.00,2013-03-01 09:47:00,
2013-03-01 01:52:00,53.4,50.5,30.47,SSW,202,2.0,8.0,90,0.00,,---,0.00,VWS V14.00,2013-03-01 09:52:00,
2013-03-01 01:57:00,53.4,50.5,30.47,South,188,3.0,8.0,90,0.00,,---,0.00,VWS V14.00,2013-03-01 09:57:00,
2013-03-01 02:02:00,53.5,50.6,30.47,SSW,194,3.0,5.0,90,0.00,,---,0.00,VWS V14.00,2013-03-01 10:02:00,
2013-03-01 02:07:00,53.5,50.6,30.47,SSW,208,3.0,7.0,90,0.00,,---,0.00,VWS V14.00,2013-03-01 10:07:00,
2013-03-01 02:12:00,53.4,50.8,30.47,South,188,2.0,7.0,91,0.00,,---,0.00,VWS V14.00,2013-03-01 10:12:00,
2013-03-01 02:17:00,53.2,50.7,30.46,South,177,2.0,7.0,91,0.00,,---,0.00,VWS V14.00,2013-03-01 10:17:00,
2013-03-01 02:22:00,53.0,50.7,30.46,South,177,4.0,7.0,92,0.00,,---,0.00,VWS V14.00,2013-03-01 10:22:00,
2013-03-01 02:27:00,52.7,50.5,30.46,SSE,165,1.0,7.0,92,0.00,,---,0.00,VWS V14.00,2013-03-01 10:27:00,
2013-03-01 02:32:00,52.5,50.5,30.47,South,187,2.0,2.0,93,0.00,,---,0.00,VWS V14.00,2013-03-01 10:32:00,
2013-03-01 02:37:00,52.4,50.4,30.47,SSE,160,2.0,4.0,93,0.00,,---,0.00,VWS V14.00,2013-03-01 10:37:00,
2013-03-01 02:42:00,52.3,50.6,30.46,SSE,168,4.0,5.0,94,0.01,,---,0.01,VWS V14.00,2013-03-01 10:42:00,
2013-03-01 02:47:00,52.2,50.5,30.46,SSE,159,4.0,5.0,94,0.01,,---,0.01,VWS V14.00,2013-03-01 10:47:00,
2013-03-01 02:52:00,52.1,50.7,30.46,South,169,4.0,5.0,95,0.01,,---,0.01,VWS V14.00,2013-03-01 10:52:00,
2013-03-01 02:57:00,52.1,50.7,30.46,SSE,164,5.0,7.0,95,0.01,,---,0.01,VWS V14.00,2013-03-01 10:57:00,
2013-03-01 03:02:00,52.0,50.6,30.45,SSE,157,2.0,4.0,95,0.01,,---,0.01,VWS V14.00,2013-03-01 11:02:00,
2013-03-01 03:07:00,51.9,50.5,30.45,South,188,5.0,6.0,95,0.01,,---,0.01,VWS V14.00,2013-03-01 11:07:00,
2013-03-01 03:13:00,51.9,50.5,30.45,South,178,4.0,6.0,95,0.01,,---,0.01,VWS V14.00,2013-03-01 11:13:00,
2013-03-01 03:18:00,51.9,50.5,30.46,South,182,2.0,6.0,95,0.01,,---,0.01,VWS V14.00,2013-03-01 11:18:00,
2013-03-01 03:23:00,52.0,50.6,30.46,South,177,2.0,6.0,95,0.01,,---,0.01,VWS V14.00,2013-03-01 11:23:00,
2013-03-01 03:28:00,52.0,50.6,30.46,South,171,1.0,6.0,95,0.01,,---,0.01,VWS V14.00,2013-03-01 11:28:00,
2013-03-01 03:33:00,52.0,50.6,30.46,South,187,1.0,3.0,95,0.01,,---,0.01,VWS V14.00,2013-03-01 11:33:00,
2013-03-01 03:38:00,51.9,50.5,30.46,South,175,1.0,4.0,95,0.01,,---,0.01,VWS V14.00,2013-03-01 11:38:00,
2013-03-01 03:43:00,52.0,50.6,30.46,SE,132,2.0,5.0,95,0.01,,---,0.01,VWS V14.00,2013-03-01 11:43:00,
2013-03-01 03:48:00,51.9,50.5,30.46,SSE,165,1.0,5.0,95,0.01,,---,0.01,VWS V14.00,2013-03-01 11:48:00,
2013-03-01 03:53:00,51.9,50.5,30.46,SSE,166,4.0,5.0,95,0.01,,---,0.01,VWS V14.00,2013-03-01 11:53:00,
2013-03-01 03:58:00,51.9,50.5,30.46,South,177,2.0,5.0,95,0.01,,---,0.01,VWS V14.00,2013-03-01 11:58:00,
2013-03-01 04:03:00,52.0,50.6,30.46,SSE,163,2.0,4.0,95,0.00,,---,0.01,VWS V14.00,2013-03-01 12:03:00,
2013-03-01 04:08:00,52.0,50.6,30.46,SSW,196,4.0,5.0,95,0.00,,---,0.01,VWS V14.00,2013-03-01 12:08:00,
2013-03-01 04:13:00,52.1,50.7,30.46,SSE,156,2.0,5.0,95,0.00,,---,0.01,VWS V14.00,2013-03-01 12:13:00,
2013-03-01 04:18:00,52.1,50.4,30.45,South,182,2.0,5.0,94,0.00,,---,0.01,VWS V14.00,2013-03-01 12:18:00,
2013-03-01 04:23:00,52.1,50.4,30.45,South,185,1.0,6.0,94,0.00,,---,0.01,VWS V14.00,2013-03-01 12:23:00,
2013-03-01 04:28:00,52.2,50.5,30.45,South,180,1.0,6.0,94,0.00,,---,0.01,VWS V14.00,2013-03-01 12:28:00,
2013-03-01 04:33:00,52.2,50.5,30.45,South,179,1.0,2.0,94,0.00,,---,0.01,VWS V14.00,2013-03-01 12:33:00,
2013-03-01 04:38:00,52.1,50.7,30.45,South,188,0.0,4.0,95,0.00,,---,0.01,VWS V14.00,2013-03-01 12:38:00,
2013-03-01 04:43:00,52.1,50.7,30.45,South,169,1.0,5.0,95,0.00,,---,0.01,VWS V14.00,2013-03-01 12:43:00,
2013-03-01 04:48:00,52.0,50.6,30.45,South,183,3.0,5.0,95,0.00,,---,0.01,VWS V14.00,2013-03-01 12:48:00,
2013-03-01 04:53:00,52.0,50.6,30.45,South,171,2.0,5.0,95,0.00,,---,0.01,VWS V14.00,2013-03-01 12:53:00,
2013-03-01 04:58:00,52.1,50.7,30.45,South,169,2.0,6.0,95,0.00,,---,0.01,VWS V14.00,2013-03-01 12:58:00,
2013-03-01 05:03:00,52.1,50.4,30.45,SSW,199,2.0,3.0,94,0.00,,---,0.01,VWS V14.00,2013-03-01 13:03:00,
2013-03-01 05:08:00,52.1,50.4,30.45,SSW,208,3.0,5.0,94,0.00,,---,0.01,VWS V14.00,2013-03-01 13:08:00,
2013-03-01 05:13:00,52.1,50.4,30.45,South,172,2.0,5.0,94,0.00,,---,0.01,VWS V14.00,2013-03-01 13:13:00,
2013-03-01 05:18:00,52.2,50.5,30.45,SSE,167,2.0,5.0,94,0.00,,---,0.01,VWS V14.00,2013-03-01 13:18:00,
2013-03-01 05:23:00,52.1,50.4,30.44,SSE,151,1.0,5.0,94,0.00,,---,0.01,VWS V14.00,2013-03-01 13:23:00,
2013-03-01 05:28:00,52.1,50.4,30.44,South,177,1.0,5.0,94,0.00,,---,0.01,VWS V14.00,2013-03-01 13:28:00,
2013-03-01 05:33:00,51.9,50.2,30.45,SSE,158,2.0,4.0,94,0.00,,---,0.01,VWS V14.00,2013-03-01 13:33:00,
2013-03-01 05:38:00,51.9,50.2,30.45,SSE,160,2.0,4.0,94,0.00,,---,0.01,VWS V14.00,2013-03-01 13:38:00,
2013-03-01 05:43:00,51.9,50.2,30.44,SSE,150,0.0,5.0,94,0.00,,---,0.01,VWS V14.00,2013-03-01 13:43:00,
2013-03-01 05:48:00,51.9,50.2,30.45,South,191,2.0,6.0,94,0.00,,---,0.01,VWS V14.00,2013-03-01 13:48:00,
2013-03-01 05:53:00,52.0,50.3,30.45,South,180,3.0,6.0,94,0.00,,---,0.01,VWS V14.00,2013-03-01 13:53:00,
2013-03-01 05:58:00,52.0,50.0,30.45,South,170,4.0,7.0,93,0.00,,---,0.01,VWS V14.00,2013-03-01 13:58:00,
2013-03-01 06:03:00,52.1,50.1,30.45,SSW,197,1.0,4.0,93,0.00,,---,0.01,VWS V14.00,2013-03-01 14:03:00,
2013-03-01 06:08:00,51.9,49.9,30.45,SSW,203,2.0,4.0,93,0.00,,---,0.01,VWS V14.00,2013-03-01 14:08:00,
2013-03-01 06:13:00,51.8,49.8,30.45,South,173,1.0,4.0,93,0.00,,---,0.01,VWS V14.00,2013-03-01 14:13:00,
2013-03-01 06:18:00,51.7,49.8,30.45,South,180,0.0,4.0,93,0.00,,---,0.01,VWS V14.00,2013-03-01 14:18:00,
2013-03-01 06:23:00,51.6,49.7,30.45,South,188,3.0,5.0,93,0.00,,---,0.01,VWS V14.00,2013-03-01 14:23:00,
2013-03-01 06:28:00,51.5,49.8,30.45,SSW,206,2.0,5.0,94,0.00,,---,0.01,VWS V14.00,2013-03-01 14:28:00,
2013-03-01 06:33:00,51.4,49.5,30.45,South,187,0.0,2.0,93,0.00,,---,0.01,VWS V14.00,2013-03-01 14:33:00,
2013-03-01 06:38:00,51.3,49.6,30.46,South,187,0.0,2.0,94,0.00,,---,0.01,VWS V14.00,2013-03-01 14:38:00,
2013-03-01 06:43:00,51.2,49.5,30.45,South,171,1.0,2.0,94,0.00,,---,0.01,VWS V14.00,2013-03-01 14:43:00,
2013-03-01 06:48:00,51.3,49.6,30.44,SSE,165,2.0,5.0,94,0.00,,---,0.01,VWS V14.00,2013-03-01 14:48:00,
2013-03-01 06:53:00,51.3,49.6,30.45,SSE,168,1.0,5.0,94,0.00,,---,0.01,VWS V14.00,2013-03-01 14:53:00,
2013-03-01 06:58:00,50.9,49.0,30.44,SSE,168,1.0,5.0,93,0.00,,---,0.01,VWS V14.00,2013-03-01 14:58:00,
2013-03-01 07:03:00,50.7,49.0,30.44,SSE,153,0.0,2.0,94,0.00,,---,0.01,VWS V14.00,2013-03-01 15:03:00,
2013-03-01 07:08:00,50.6,48.9,30.44,SSE,153,0.0,2.0,94,0.00,,---,0.01,VWS V14.00,2013-03-01 15:08:00,
2013-03-01 07:13:00,50.5,48.8,30.44,SSE,166,0.0,2.0,94,0.00,,---,0.01,VWS V14.00,2013-03-01 15:13:00,
2013-03-01 07:18:00,50.6,49.2,30.44,South,171,1.0,2.0,95,0.00,,---,0.01,VWS V14.00,2013-03-01 15:18:00,
2013-03-01 07:23:00,50.7,49.0,30.45,South,178,1.0,2.0,94,0.00,,---,0.01,VWS V14.00,2013-03-01 15:23:00,
2013-03-01 07:28:00,50.8,49.1,30.45,SSE,159,2.0,2.0,94,0.00,,---,0.01,VWS V14.00,2013-03-01 15:28:00,
2013-03-01 07:33:00,50.9,49.2,30.45,SSE,159,1.0,1.0,94,0.00,,---,0.01,VWS V14.00,2013-03-01 15:33:00,
2013-03-01 07:38:00,51.0,49.3,30.45,South,178,0.0,4.0,94,0.00,,---,0.01,VWS V14.00,2013-03-01 15:38:00,
2013-03-01 07:44:00,51.4,49.7,30.45,South,178,2.0,5.0,94,0.00,,---,0.01,VWS V14.00,2013-03-01 15:44:00,
2013-03-01 07:49:00,51.8,50.1,30.45,South,180,4.0,6.0,94,0.00,,---,0.01,VWS V14.00,2013-03-01 15:49:00,
2013-03-01 07:54:00,52.2,50.2,30.45,SSW,210,2.0,6.0,93,0.00,,---,0.01,VWS V14.00,2013-03-01 15:54:00,
2013-03-01 07:59:00,52.5,50.2,30.45,SSW,204,4.0,6.0,92,0.00,,---,0.01,VWS V14.00,2013-03-01 15:59:00,
2013-03-01 08:04:00,52.8,50.2,30.45,SSE,166,4.0,6.0,91,0.00,,---,0.01,VWS V14.00,2013-03-01 16:04:00,
2013-03-01 08:09:00,52.8,50.2,30.45,SSW,192,2.0,6.0,91,0.00,,---,0.01,VWS V14.00,2013-03-01 16:09:00,
2013-03-01 08:14:00,52.9,50.3,30.45,SSW,208,2.0,6.0,91,0.00,,---,0.01,VWS V14.00,2013-03-01 16:14:00,
2013-03-01 08:19:00,52.9,50.3,30.45,SSW,197,2.0,6.0,91,0.00,,---,0.01,VWS V14.00,2013-03-01 16:19:00,
2013-03-01 08:24:00,52.9,50.3,30.45,South,182,4.0,7.0,91,0.00,,---,0.01,VWS V14.00,2013-03-01 16:24:00,
2013-03-01 08:29:00,53.1,50.5,30.45,SW,215,2.0,8.0,91,0.00,,---,0.01,VWS V14.00,2013-03-01 16:29:00,
2013-03-01 08:34:00,53.2,50.3,30.45,SSW,202,3.0,5.0,90,0.00,,---,0.01,VWS V14.00,2013-03-01 16:34:00,
2013-03-01 08:39:00,53.4,50.5,30.46,SSW,200,2.0,5.0,90,0.00,,---,0.01,VWS V14.00,2013-03-01 16:39:00,
2013-03-01 08:44:00,53.5,50.6,30.45,SSW,209,3.0,5.0,90,0.00,,---,0.01,VWS V14.00,2013-03-01 16:44:00,
2013-03-01 08:49:00,53.5,50.6,30.45,SSW,197,5.0,6.0,90,0.00,,---,0.01,VWS V14.00,2013-03-01 16:49:00,
2013-03-01 08:54:00,53.7,50.8,30.45,SSE,162,2.0,6.0,90,0.00,,---,0.01,VWS V14.00,2013-03-01 16:54:00,
2013-03-01 08:59:00,54.0,50.8,30.46,WSW,238,2.0,6.0,89,0.00,,---,0.01,VWS V14.00,2013-03-01 16:59:00,
2013-03-01 09:04:00,54.2,51.0,30.46,SW,222,3.0,6.0,89,0.00,,---,0.01,VWS V14.00,2013-03-01 17:04:00,
2013-03-01 09:09:00,54.3,50.8,30.46,SSW,209,5.0,7.0,88,0.00,,---,0.01,VWS V14.00,2013-03-01 17:09:00,
2013-03-01 09:14:00,54.3,50.8,30.46,South,190,4.0,8.0,88,0.00,,---,0.01,VWS V14.00,2013-03-01 17:14:00,
2013-03-01 09:19:00,54.4,50.9,30.46,South,186,3.0,8.0,88,0.00,,---,0.01,VWS V14.00,2013-03-01 17:19:00,
2013-03-01 09:24:00,54.8,51.6,30.46,SSW,198,4.0,8.0,89,0.00,,---,0.01,VWS V14.00,2013-03-01 17:24:00,
2013-03-01 09:29:00,55.0,51.5,30.46,WSW,241,6.0,9.0,88,0.00,,---,0.01,VWS V14.00,2013-03-01 17:29:00,
2013-03-01 09:34:00,55.0,51.2,30.45,SSW,202,4.0,6.0,87,0.00,,---,0.01,VWS V14.00,2013-03-01 17:34:00,
2013-03-01 09:39:00,55.0,51.5,30.45,South,171,6.0,8.0,88,0.00,,---,0.01,VWS V14.00,2013-03-01 17:39:00,
2013-03-01 09:44:00,55.0,51.2,30.45,SSW,194,4.0,10.0,87,0.00,,---,0.01,VWS V14.00,2013-03-01 17:44:00,
2013-03-01 09:49:00,54.9,51.4,30.45,SSE,163,6.0,10.0,88,0.00,,---,0.01,VWS V14.00,2013-03-01 17:49:00,
2013-03-01 09:54:00,54.9,51.1,30.45,SSW,196,4.0,10.0,87,0.00,,---,0.01,VWS V14.00,2013-03-01 17:54:00,
2013-03-01 09:59:00,54.9,51.1,30.45,SSE,165,5.0,10.0,87,0.00,,---,0.01,VWS V14.00,2013-03-01 17:59:00,
2013-03-01 10:04:00,54.9,51.1,30.45,SSW,198,2.0,6.0,87,0.00,,---,0.01,VWS V14.00,2013-03-01 18:04:00,
2013-03-01 10:09:00,54.9,51.1,30.46,SW,223,4.0,6.0,87,0.00,,---,0.01,VWS V14.00,2013-03-01 18:09:00,
2013-03-01 10:14:00,54.9,51.1,30.46,SSW,200,3.0,7.0,87,0.00,,---,0.01,VWS V14.00,2013-03-01 18:14:00,
2013-03-01 10:19:00,54.9,51.1,30.46,SSW,209,2.0,8.0,87,0.00,,---,0.01,VWS V14.00,2013-03-01 18:19:00,
2013-03-01 10:24:00,54.9,51.1,30.45,South,191,4.0,8.0,87,0.00,,---,0.01,VWS V14.00,2013-03-01 18:24:00,
2013-03-01 10:29:00,54.9,51.1,30.46,South,171,4.0,8.0,87,0.00,,---,0.01,VWS V14.00,2013-03-01 18:29:00,
2013-03-01 10:34:00,54.9,51.1,30.45,South,189,2.0,4.0,87,0.00,,---,0.01,VWS V14.00,2013-03-01 18:34:00,
2013-03-01 10:39:00,54.9,51.1,30.45,South,182,5.0,8.0,87,0.00,,---,0.01,VWS V14.00,2013-03-01 18:39:00,
2013-03-01 10:45:00,55.1,51.3,30.45,South,179,4.0,8.0,87,0.00,,---,0.01,VWS V14.00,2013-03-01 18:45:00,
2013-03-01 10:50:00,55.2,51.4,30.45,South,169,5.0,8.0,87,0.00,,---,0.01,VWS V14.00,2013-03-01 18:50:00,
2013-03-01 10:55:00,55.4,51.6,30.46,SSE,156,2.0,8.0,87,0.00,,---,0.01,VWS V14.00,2013-03-01 18:55:00,
2013-03-01 11:00:00,55.5,51.7,30.46,South,190,4.0,8.0,87,0.00,,---,0.01,VWS V14.00,2013-03-01 19:00:00,
2013-03-01 11:05:00,55.6,51.2,30.46,SSE,163,5.0,6.0,85,0.00,,---,0.01,VWS V14.00,2013-03-01 19:05:00,
2013-03-01 11:10:00,55.7,51.3,30.45,SSW,192,4.0,7.0,85,0.00,,---,0.01,VWS V14.00,2013-03-01 19:10:00,
2013-03-01 11:15:00,55.9,51.5,30.43,SSE,153,5.0,8.0,85,0.00,,---,0.01,VWS V14.00,2013-03-01 19:15:00,
2013-03-01 11:20:00,56.5,52.0,30.44,South,184,5.0,8.0,85,0.00,,---,0.01,VWS V14.00,2013-03-01 19:20:00,
2013-03-01 11:25:00,57.0,51.9,30.44,South,169,2.0,8.0,83,0.00,,---,0.01,VWS V14.00,2013-03-01 19:25:00,
2013-03-01 11:30:00,57.3,51.5,30.44,SSW,207,5.0,8.0,81,0.00,,---,0.01,VWS V14.00,2013-03-01 19:30:00,
2013-03-01 11:35:00,57.1,51.7,30.44,SSW,196,3.0,8.0,82,0.00,,---,0.01,VWS V14.00,2013-03-01 19:35:00,
2013-03-01 11:40:00,57.1,51.7,30.44,South,182,3.0,9.0,82,0.00,,---,0.01,VWS V14.00,2013-03-01 19:40:00,
2013-03-01 11:45:00,57.3,51.9,30.44,South,187,2.0,9.0,82,0.00,,---,0.01,VWS V14.00,2013-03-01 19:45:00,
2013-03-01 11:50:00,57.5,51.7,30.44,SSW,208,4.0,9.0,81,0.00,,---,0.01,VWS V14.00,2013-03-01 19:50:00,
2013-03-01 11:55:00,57.9,51.4,30.44,South,184,5.0,10.0,79,0.00,,---,0.01,VWS V14.00,2013-03-01 19:55:00,
2013-03-01 12:00:00,57.9,51.1,30.44,South,175,2.0,13.0,78,0.00,,---,0.01,VWS V14.00,2013-03-01 20:00:00,
2013-03-01 12:05:00,58.0,51.5,30.44,SSW,205,2.0,8.0,79,0.00,,---,0.01,VWS V14.00,2013-03-01 20:05:00,
2013-03-01 12:10:00,58.4,51.6,30.44,South,190,3.0,8.0,78,0.00,,---,0.01,VWS V14.00,2013-03-01 20:10:00,
2013-03-01 12:15:00,58.3,51.5,30.44,SSW,192,3.0,10.0,78,0.00,,---,0.01,VWS V14.00,2013-03-01 20:15:00,
2013-03-01 12:20:00,58.4,51.2,30.43,SSW,192,4.0,11.0,77,0.00,,---,0.01,VWS V14.00,2013-03-01 20:20:00,
2013-03-01 12:25:00,58.6,51.4,30.43,SSW,197,6.0,11.0,77,0.00,,---,0.01,VWS V14.00,2013-03-01 20:25:00,
2013-03-01 12:30:00,58.6,51.4,30.43,SSW,204,4.0,11.0,77,0.00,,---,0.01,VWS V14.00,2013-03-01 20:30:00,
2013-03-01 12:35:00,58.5,51.3,30.43,South,181,2.0,8.0,77,0.00,,---,0.01,VWS V14.00,2013-03-01 20:35:00,
2013-03-01 12:40:00,58.4,51.2,30.42,SSE,165,4.0,8.0,77,0.00,,---,0.01,VWS V14.00,2013-03-01 20:40:00,
2013-03-01 12:45:00,58.4,51.6,30.42,South,184,3.0,8.0,78,0.00,,---,0.01,VWS V14.00,2013-03-01 20:45:00,
2013-03-01 12:50:00,58.3,51.1,30.42,SE,137,4.0,9.0,77,0.00,,---,0.01,VWS V14.00,2013-03-01 20:50:00,
2013-03-01 12:55:00,58.2,51.0,30.42,South,180,3.0,9.0,77,0.00,,---,0.01,VWS V14.00,2013-03-01 20:55:00,
2013-03-01 13:00:00,58.2,50.7,30.42,SSW,202,4.0,9.0,76,0.00,,---,0.01,VWS V14.00,2013-03-01 21:00:00,
2013-03-01 13:05:00,58.2,51.4,30.42,SW,216,5.0,5.0,78,0.00,,---,0.01,VWS V14.00,2013-03-01 21:05:00,
2013-03-01 13:10:00,58.3,51.1,30.41,South,171,2.0,7.0,77,0.00,,---,0.01,VWS V14.00,2013-03-01 21:10:00,
2013-03-01 13:15:00,58.6,51.4,30.41,SSW,201,5.0,8.0,77,0.00,,---,0.01,VWS V14.00,2013-03-01 21:15:00,
2013-03-01 13:20:00,58.6,51.1,30.41,SSE,165,4.0,9.0,76,0.00,,---,0.01,VWS V14.00,2013-03-01 21:20:00,
2013-03-01 13:25:00,58.8,51.6,30.41,South,184,4.0,9.0,77,0.00,,---,0.01,VWS V14.00,2013-03-01 21:25:00,
2013-03-01 13:30:00,59.0,51.5,30.41,South,175,5.0,9.0,76,0.00,,---,0.01,VWS V14.00,2013-03-01 21:30:00,
2013-03-01 13:35:00,59.0,51.1,30.41,SSW,195,6.0,10.0,75,0.00,,---,0.01,VWS V14.00,2013-03-01 21:35:00,
2013-03-01 13:40:00,58.9,51.4,30.40,SSW,211,2.0,10.0,76,0.00,,---,0.01,VWS V14.00,2013-03-01 21:40:00,
2013-03-01 13:45:00,58.9,51.0,30.40,SSE,165,2.0,10.0,75,0.00,,---,0.01,VWS V14.00,2013-03-01 21:45:00,
2013-03-01 13:50:00,58.9,51.0,30.40,SSE,168,4.0,10.0,75,0.00,,---,0.01,VWS V14.00,2013-03-01 21:50:00,
2013-03-01 13:55:00,58.9,51.0,30.40,SE,134,6.0,10.0,75,0.00,,---,0.01,VWS V14.00,2013-03-01 21:55:00,
2013-03-01 14:00:00,58.8,50.9,30.40,South,181,3.0,10.0,75,0.00,,---,0.01,VWS V14.00,2013-03-01 22:00:00,
2013-03-01 14:05:00,58.9,51.0,30.39,SSW,192,2.0,4.0,75,0.00,,---,0.01,VWS V14.00,2013-03-01 22:05:00,
2013-03-01 14:10:00,59.3,51.4,30.39,SSW,204,4.0,6.0,75,0.00,,---,0.01,VWS V14.00,2013-03-01 22:10:00,
2013-03-01 14:15:00,59.8,51.5,30.39,South,180,4.0,6.0,74,0.00,,---,0.01,VWS V14.00,2013-03-01 22:15:00,
2013-03-01 14:20:00,60.0,51.3,30.39,SSW,198,6.0,8.0,73,0.00,,---,0.01,VWS V14.00,2013-03-01 22:20:00,
2013-03-01 14:25:00,60.2,50.8,30.39,SSE,154,4.0,8.0,71,0.00,,---,0.01,VWS V14.00,2013-03-01 22:25:00,
2013-03-01 14:30:00,60.2,51.2,30.39,SW,230,3.0,8.0,72,0.00,,---,0.01,VWS V14.00,2013-03-01 22:30:00,
2013-03-01 14:35:00,60.5,51.4,30.39,SSW,194,2.0,7.0,72,0.00,,---,0.01,VWS V14.00,2013-03-01 22:35:00,
2013-03-01 14:40:00,60.6,51.2,30.39,SSW,205,4.0,8.0,71,0.00,,---,0.01,VWS V14.00,2013-03-01 22:40:00,
2013-03-01 14:45:00,60.7,50.9,30.39,SSW,211,4.0,8.0,70,0.00,,---,0.01,VWS V14.00,2013-03-01 22:45:00,
2013-03-01 14:51:00,60.8,51.0,30.39,SSE,155,5.0,8.0,70,0.00,,---,0.01,VWS V14.00,2013-03-01 22:51:00,
2013-03-01 14:56:00,60.9,51.1,30.38,SSE,154,4.0,8.0,70,0.00,,---,0.01,VWS V14.00,2013-03-01 22:56:00,
2013-03-01 15:01:00,60.9,50.7,30.38,South,184,3.0,8.0,69,0.00,,---,0.01,VWS V14.00,2013-03-01 23:01:00,
2013-03-01 15:06:00,60.9,51.1,30.38,South,183,3.0,7.0,70,0.00,,---,0.01,VWS V14.00,2013-03-01 23:06:00,
2013-03-01 15:11:00,60.7,50.9,30.38,SSW,196,2.0,7.0,70,0.00,,---,0.01,VWS V14.00,2013-03-01 23:11:00,
2013-03-01 15:16:00,60.5,50.7,30.38,South,185,3.0,7.0,70,0.00,,---,0.01,VWS V14.00,2013-03-01 23:16:00,
2013-03-01 15:21:00,60.5,51.1,30.37,SSE,155,2.0,7.0,71,0.00,,---,0.01,VWS V14.00,2013-03-01 23:21:00,
2013-03-01 15:26:00,60.5,51.1,30.37,South,186,2.0,7.0,71,0.00,,---,0.01,VWS V14.00,2013-03-01 23:26:00,
2013-03-01 15:31:00,60.8,51.0,30.37,South,177,2.0,7.0,70,0.00,,---,0.01,VWS V14.00,2013-03-01 23:31:00,
2013-03-01 15:36:00,61.2,51.0,30.37,South,173,1.0,4.0,69,0.00,,---,0.01,VWS V14.00,2013-03-01 23:36:00,
2013-03-01 15:41:00,61.3,51.8,30.37,SSW,212,2.0,4.0,71,0.00,,---,0.01,VWS V14.00,2013-03-01 23:41:00,
2013-03-01 15:46:00,61.2,51.3,30.36,SSW,211,2.0,5.0,70,0.00,,---,0.01,VWS V14.00,2013-03-01 23:46:00,
2013-03-01 15:51:00,60.8,51.3,30.36,South,180,1.0,5.0,71,0.00,,---,0.01,VWS V14.00,2013-03-01 23:51:00,
2013-03-01 15:56:00,60.7,51.6,30.36,SSW,205,3.0,5.0,72,0.00,,---,0.01,VWS V14.00,2013-03-01 23:56:00,
2013-03-01 16:01:00,60.8,51.3,30.36,SSW,202,3.0,5.0,71,0.00,,---,0.01,VWS V14.00,2013-03-02 00:01:00,
2013-03-01 16:06:00,60.8,51.7,30.36,SSW,196,1.0,5.0,72,0.00,,---,0.01,VWS V14.00,2013-03-02 00:06:00,
2013-03-01 16:11:00,60.8,51.7,30.36,SSW,198,1.0,5.0,72,0.00,,---,0.01,VWS V14.00,2013-03-02 00:11:00,
2013-03-01 16:16:00,60.7,51.6,30.36,South,173,2.0,5.0,72,0.00,,---,0.01,VWS V14.00,2013-03-02 00:16:00,
2013-03-01 16:21:00,60.6,51.9,30.36,SSW,194,1.0,5.0,73,0.00,,---,0.01,VWS V14.00,2013-03-02 00:21:00,
2013-03-01 16:26:00,60.6,52.6,30.36,SSW,194,0.0,5.0,75,0.00,,---,0.01,VWS V14.00,2013-03-02 00:26:00,
2013-03-01 16:31:00,60.7,52.4,30.35,SSW,194,0.0,5.0,74,0.00,,---,0.01,VWS V14.00,2013-03-02 00:31:00,
2013-03-01 16:36:00,60.8,52.5,30.35,SSW,202,1.0,2.0,74,0.00,,---,0.01,VWS V14.00,2013-03-02 00:36:00,
2013-03-01 16:41:00,60.5,52.5,30.35,SSW,202,0.0,2.0,75,0.00,,---,0.01,VWS V14.00,2013-03-02 00:41:00,
2013-03-01 16:46:00,60.4,52.5,30.35,SSW,202,0.0,2.0,75,0.00,,---,0.01,VWS V14.00,2013-03-02 00:46:00,
2013-03-01 16:51:00,60.3,52.0,30.35,SW,215,1.0,3.0,74,0.00,,---,0.01,VWS V14.00,2013-03-02 00:51:00,
2013-03-01 16:56:00,60.1,51.8,30.35,SSW,207,0.0,3.0,74,0.00,,---,0.01,VWS V14.00,2013-03-02 00:56:00,
2013-03-01 17:01:00,60.0,52.4,30.35,SSW,207,0.0,3.0,76,0.00,,---,0.01,VWS V14.00,2013-03-02 01:01:00,
2013-03-01 17:06:00,59.9,52.0,30.35,SSW,207,0.0,2.0,75,0.00,,---,0.01,VWS V14.00,2013-03-02 01:06:00,
2013-03-01 17:11:00,59.8,51.9,30.35,SSW,207,0.0,2.0,75,0.00,,---,0.01,VWS V14.00,2013-03-02 01:11:00,
2013-03-01 17:16:00,59.6,51.7,30.35,SSW,207,0.0,2.0,75,0.00,,---,0.01,VWS V14.00,2013-03-02 01:16:00,
2013-03-01 17:21:00,59.6,52.0,30.35,SSW,207,0.0,2.0,76,0.00,,---,0.01,VWS V14.00,2013-03-02 01:21:00,
2013-03-01 17:26:00,59.4,52.2,30.35,SSW,207,0.0,2.0,77,0.00,,---,0.01,VWS V14.00,2013-03-02 01:26:00,
2013-03-01 17:31:00,59.2,52.3,30.34,SSW,207,0.0,2.0,78,0.00,,---,0.01,VWS V14.00,2013-03-02 01:31:00,
2013-03-01 17:36:00,58.8,52.0,30.34,SSW,207,0.0,0.0,78,0.00,,---,0.01,VWS V14.00,2013-03-02 01:36:00,
2013-03-01 17:42:00,58.4,51.9,30.34,SSW,207,0.0,0.0,79,0.00,,---,0.01,VWS V14.00,2013-03-02 01:42:00,
2013-03-01 17:47:00,58.1,52.0,30.34,SSW,207,0.0,0.0,80,0.00,,---,0.01,VWS V14.00,2013-03-02 01:47:00,
2013-03-01 17:52:00,57.7,51.6,30.34,SSW,207,0.0,0.0,80,0.00,,---,0.01,VWS V14.00,2013-03-02 01:52:00,
2013-03-01 17:57:00,57.5,51.7,30.34,SSW,207,0.0,0.0,81,0.00,,---,0.01,VWS V14.00,2013-03-02 01:57:00,
2013-03-01 18:02:00,57.3,51.5,30.34,SSW,207,0.0,0.0,81,0.00,,---,0.01,VWS V14.00,2013-03-02 02:02:00,
2013-03-01 18:07:00,57.0,51.2,30.34,SSW,207,0.0,0.0,81,0.00,,---,0.01,VWS V14.00,2013-03-02 02:07:00,
2013-03-01 18:12:00,56.6,51.2,30.34,SSW,207,0.0,0.0,82,0.00,,---,0.01,VWS V14.00,2013-03-02 02:12:00,
2013-03-01 18:17:00,56.3,50.9,30.34,SSW,207,0.0,0.0,82,0.00,,---,0.01,VWS V14.00,2013-03-02 02:17:00,
2013-03-01 18:22:00,55.9,51.1,30.34,SSW,207,0.0,0.0,84,0.00,,---,0.01,VWS V14.00,2013-03-02 02:22:00,
2013-03-01 18:27:00,55.6,50.8,30.33,SSW,207,0.0,0.0,84,0.00,,---,0.01,VWS V14.00,2013-03-02 02:27:00,
2013-03-01 18:32:00,55.3,50.6,30.33,SSW,207,0.0,0.0,84,0.00,,---,0.01,VWS V14.00,2013-03-02 02:32:00,
2013-03-01 18:37:00,54.8,50.4,30.33,SSW,207,0.0,0.0,85,0.00,,---,0.01,VWS V14.00,2013-03-02 02:37:00,
2013-03-01 18:42:00,54.5,50.4,30.33,SSW,207,0.0,0.0,86,0.00,,---,0.01,VWS V14.00,2013-03-02 02:42:00,
2013-03-01 18:47:00,54.0,50.2,30.33,SSW,207,0.0,0.0,87,0.00,,---,0.01,VWS V14.00,2013-03-02 02:47:00,
2013-03-01 18:52:00,53.6,50.1,30.33,NW,325,1.0,2.0,88,0.00,,---,0.01,VWS V14.00,2013-03-02 02:52:00,
2013-03-01 18:57:00,53.2,49.7,30.34,NW,325,0.0,2.0,88,0.00,,---,0.01,VWS V14.00,2013-03-02 02:57:00,
2013-03-01 19:02:00,53.0,49.8,30.34,NW,325,0.0,0.0,89,0.00,,---,0.01,VWS V14.00,2013-03-02 03:02:00,
2013-03-01 19:07:00,52.7,49.5,30.34,NW,325,0.0,0.0,89,0.00,,---,0.01,VWS V14.00,2013-03-02 03:07:00,
2013-03-01 19:12:00,52.6,49.8,30.34,NW,325,0.0,0.0,90,0.00,,---,0.01,VWS V14.00,2013-03-02 03:12:00,
2013-03-01 19:17:00,52.4,49.6,30.34,NW,325,0.0,0.0,90,0.00,,---,0.01,VWS V14.00,2013-03-02 03:17:00,
2013-03-01 19:22:00,52.3,49.5,30.34,NW,325,0.0,0.0,90,0.00,,---,0.01,VWS V14.00,2013-03-02 03:22:00,
2013-03-01 19:27:00,52.1,49.3,30.34,NW,325,0.0,0.0,90,0.00,,---,0.01,VWS V14.00,2013-03-02 03:27:00,
2013-03-01 19:32:00,52.0,49.2,30.34,NW,325,0.0,0.0,90,0.00,,---,0.01,VWS V14.00,2013-03-02 03:32:00,
2013-03-01 19:37:00,51.8,49.0,30.34,NW,325,0.0,0.0,90,0.00,,---,0.01,VWS V14.00,2013-03-02 03:37:00,
2013-03-01 19:42:00,51.6,49.1,30.34,NW,325,0.0,0.0,91,0.00,,---,0.01,VWS V14.00,2013-03-02 03:42:00,
2013-03-01 19:47:00,51.4,48.9,30.34,NW,325,0.0,0.0,91,0.00,,---,0.01,VWS V14.00,2013-03-02 03:47:00,
2013-03-01 19:52:00,51.2,49.0,30.34,NW,325,0.0,0.0,92,0.00,,---,0.01,VWS V14.00,2013-03-02 03:52:00,
2013-03-01 19:57:00,51.2,49.0,30.34,NW,325,0.0,0.0,92,0.00,,---,0.01,VWS V14.00,2013-03-02 03:57:00,
2013-03-01 20:02:00,51.1,48.9,30.34,NW,325,0.0,0.0,92,0.00,,---,0.01,VWS V14.00,2013-03-02 04:02:00,
2013-03-01 20:07:00,50.8,48.6,30.34,NW,325,0.0,0.0,92,0.00,,---,0.01,VWS V14.00,2013-03-02 04:07:00,
2013-03-01 20:12:00,50.4,47.9,30.34,NW,325,0.0,0.0,91,0.00,,---,0.01,VWS V14.00,2013-03-02 04:12:00,
2013-03-01 20:17:00,50.1,47.6,30.33,NW,325,0.0,0.0,91,0.00,,---,0.01,VWS V14.00,2013-03-02 04:17:00,
2013-03-01 20:22:00,49.9,47.7,30.33,NW,325,0.0,0.0,92,0.00,,---,0.01,VWS V14.00,2013-03-02 04:22:00,
2013-03-01 20:27:00,49.8,47.9,30.33,NW,325,0.0,0.0,93,0.00,,---,0.01,VWS V14.00,2013-03-02 04:27:00,
2013-03-01 20:32:00,49.8,47.9,30.33,NW,325,0.0,0.0,93,0.00,,---,0.01,VWS V14.00,2013-03-02 04:32:00,
2013-03-01 20:37:00,49.7,48.0,30.34,NW,325,0.0,0.0,94,0.00,,---,0.01,VWS V14.00,2013-03-02 04:37:00,
2013-03-01 20:42:00,49.7,48.0,30.34,NW,325,0.0,0.0,94,0.00,,---,0.01,VWS V14.00,2013-03-02 04:42:00,
2013-03-01 20:47:00,49.6,48.0,30.33,NW,325,0.0,0.0,94,0.00,,---,0.01,VWS V14.00,2013-03-02 04:47:00,
2013-03-01 20:52:00,49.7,48.0,30.34,NW,325,0.0,0.0,94,0.00,,---,0.01,VWS V14.00,2013-03-02 04:52:00,
2013-03-01 20:57:00,49.7,48.0,30.33,NW,325,0.0,0.0,94,0.00,,---,0.01,VWS V14.00,2013-03-02 04:57:00,
2013-03-01 21:00:00,49.7,48.0,30.33,NW,325,0.0,0.0,94,0.00,,---,0.01,VWS V14.00,2013-03-02 05:00:00,
2013-03-01 21:01:00,49.8,48.4,30.33,NW,325,0.0,0.0,95,0.00,,---,0.01,VWS V14.00,2013-03-02 05:01:00,
2013-03-01 21:06:00,49.9,48.5,30.34,NW,325,0.0,0.0,95,0.00,,---,0.01,VWS V14.00,2013-03-02 05:06:00,
2013-03-01 21:11:00,49.9,48.2,30.34,NW,325,0.0,0.0,94,0.00,,---,0.01,VWS V14.00,2013-03-02 05:11:00,
2013-03-01 21:16:00,49.8,48.2,30.34,NW,325,0.0,0.0,94,0.00,,---,0.01,VWS V14.00,2013-03-02 05:16:00,
2013-03-01 21:21:00,49.7,48.0,30.34,NW,325,0.0,0.0,94,0.00,,---,0.01,VWS V14.00,2013-03-02 05:21:00,
2013-03-01 21:26:00,49.7,48.0,30.34,NW,325,0.0,0.0,94,0.00,,---,0.01,VWS V14.00,2013-03-02 05:26:00,
2013-03-01 21:31:00,49.6,48.0,30.34,NW,325,0.0,0.0,94,0.00,,---,0.01,VWS V14.00,2013-03-02 05:31:00,
2013-03-01 21:36:00,49.6,48.0,30.34,NW,325,0.0,0.0,94,0.00,,---,0.01,VWS V14.00,2013-03-02 05:36:00,
2013-03-01 21:41:00,49.5,47.8,30.34,NW,325,0.0,0.0,94,0.00,,---,0.01,VWS V14.00,2013-03-02 05:41:00,
2013-03-01 21:46:00,49.4,47.8,30.34,NW,325,0.0,0.0,94,0.00,,---,0.01,VWS V14.00,2013-03-02 05:46:00,
2013-03-01 21:51:00,49.4,48.0,30.34,NW,325,0.0,0.0,95,0.00,,---,0.01,VWS V14.00,2013-03-02 05:51:00,
2013-03-01 21:56:00,49.3,47.9,30.34,NW,325,0.0,0.0,95,0.00,,---,0.01,VWS V14.00,2013-03-02 05:56:00,
2013-03-01 22:01:00,49.3,47.9,30.34,NW,325,0.0,0.0,95,0.00,,---,0.01,VWS V14.00,2013-03-02 06:01:00,
2013-03-01 22:06:00,49.3,47.9,30.33,NW,325,0.0,0.0,95,0.00,,---,0.01,VWS V14.00,2013-03-02 06:06:00,
2013-03-01 22:11:00,49.2,47.8,30.33,NW,325,0.0,0.0,95,0.00,,---,0.01,VWS V14.00,2013-03-02 06:11:00,
2013-03-01 22:16:00,49.1,47.7,30.33,NW,325,0.0,0.0,95,0.00,,---,0.01,VWS V14.00,2013-03-02 06:16:00,
2013-03-01 22:21:00,49.1,47.7,30.33,NW,325,0.0,0.0,95,0.00,,---,0.01,VWS V14.00,2013-03-02 06:21:00,
2013-03-01 22:26:00,49.1,47.7,30.33,NW,325,0.0,0.0,95,0.00,,---,0.01,VWS V14.00,2013-03-02 06:26:00,
2013-03-01 22:31:00,49.1,47.7,30.34,NW,325,0.0,0.0,95,0.00,,---,0.01,VWS V14.00,2013-03-02 06:31:00,
2013-03-01 22:36:00,49.1,47.7,30.34,NW,325,0.0,0.0,95,0.00,,---,0.01,VWS V14.00,2013-03-02 06:36:00,
2013-03-01 22:41:00,49.1,47.7,30.34,NW,325,0.0,0.0,95,0.00,,---,0.01,VWS V14.00,2013-03-02 06:41:00,
2013-03-01 22:46:00,49.2,47.8,30.34,NW,325,0.0,0.0,95,0.00,,---,0.01,VWS V14.00,2013-03-02 06:46:00,
2013-03-01 22:51:00,49.2,48.1,30.34,NW,325,0.0,0.0,96,0.00,,---,0.01,VWS V14.00,2013-03-02 06:51:00,
2013-03-01 22:56:00,49.2,48.1,30.33,NW,325,0.0,0.0,96,0.00,,---,0.01,VWS V14.00,2013-03-02 06:56:00,
2013-03-01 23:01:00,49.3,48.2,30.33,NW,325,0.0,0.0,96,0.00,,---,0.01,VWS V14.00,2013-03-02 07:01:00,
2013-03-01 23:06:00,49.4,48.3,30.33,NW,325,0.0,0.0,96,0.00,,---,0.01,VWS V14.00,2013-03-02 07:06:00,
2013-03-01 23:11:00,49.5,48.4,30.33,NW,325,0.0,0.0,96,0.00,,---,0.01,VWS V14.00,2013-03-02 07:11:00,
2013-03-01 23:16:00,49.6,48.5,30.33,NW,325,0.0,0.0,96,0.00,,---,0.01,VWS V14.00,2013-03-02 07:16:00,
2013-03-01 23:21:00,49.7,48.6,30.33,NW,325,0.0,0.0,96,0.00,,---,0.01,VWS V14.00,2013-03-02 07:21:00,
2013-03-01 23:26:00,49.8,48.7,30.33,NW,325,0.0,0.0,96,0.00,,---,0.01,VWS V14.00,2013-03-02 07:26:00,
2013-03-01 23:31:00,49.9,48.8,30.33,NW,325,0.0,0.0,96,0.00,,---,0.01,VWS V14.00,2013-03-02 07:31:00,
2013-03-01 23:36:00,49.9,48.8,30.33,NW,325,0.0,0.0,96,0.00,,---,0.01,VWS V14.00,2013-03-02 07:36:00,
2013-03-01 23:41:00,50.0,48.6,30.33,NW,325,0.0,0.0,95,0.00,,---,0.01,VWS V14.00,2013-03-02 07:41:00,
2013-03-01 23:46:00,50.1,48.7,30.33,NW,325,0.0,0.0,95,0.00,,---,0.01,VWS V14.00,2013-03-02 07:46:00,
2013-03-01 23:51:00,50.2,48.5,30.33,NW,325,0.0,0.0,94,0.00,,---,0.01,VWS V14.00,2013-03-02 07:51:00,
2013-03-01 23:57:00,50.3,48.6,30.32,NNW,334,1.0,2.0,94,0.00,,---,0.01,VWS V14.00,2013-03-02 07:57:00,